Location: Home
(42.5358°N, 72.7383°W)
Time: 01:55:14
(UTC-05:00)

Vanguard 1 Rocket - Pass Details

Date: 30 November 2021
Orbit: 651 x 4224 km, 34.3° (Epoch: 23 January)

Event Time Altitude Azimuth Distance (km) Brightness Sun altitude
Exits shadow 03:19:26 47° 197° (SSW) 3,085 9.7 -40.0°
Maximum altitude 03:23:20 56° 157° (SSE) 3,200 10.0 -39.3°
Drops below altitude 10° 03:45:03 10° 88° (E) 7,195 12.7 -35.3°
Sets 03:51:23 0° 85° (E) 8,418 13.4 -34.2°
